Flag for United Kingdom Weather past 2 weeks in Stoke-on-Trent, England, United Kingdom

Now
59 °F

Partly sunny.


Feels Like: 60 °F
Forecast: 47 / 57 °F
Wind: 3 mph from North

Location: Manchester Airport

Current Time: May 23, 2015 at 1:16:04 PM

Latest Report: May 23, 2015 at 12:50 PM


Visibility: N/A

Pressure: 30.27 "Hg

Humidity: 68%

Dew point: 48 °F

Location of Stoke-on-TrentLocation

Historic Weather in Stoke-on-Trent — Graph

°F

Stoke-on-Trent temperature yesterday

Maximum temperature yesterday: 61 °F (at 3:20 PM)
Minimum temperature yesterday: 50 °F (at 11:20 PM)
Average temperature yesterday: 55 °F

Past Weeks' High & Low Weather Summary

 TemperatureHumidityPressure
High66 °F (May 11, 2:20 PM)100% (May 8, 4:50 PM)30.30 "Hg (May 8, 4:50 PM)
Low41 °F (May 19, 1:50 AM)37% (May 11, 2:20 PM)29.45 "Hg (May 19, 2:20 AM)
Average51 °F76%30.01 "Hg
* Reported May 8 11:20 AM — May 23 11:50 AM, Stoke-on-Trent, Weather by CustomWeather, © 2015

Note: Actual official high and low records may vary slightly from our data, if they occured in-between our weather recording intervals... More about our weather records

Advertising

Stoke-on-Trent weather history for previous 24 hours

 ConditionsComfort  
Time TempWeatherWind HumidityBarometerVisibility
11:50 AM
Sat, May 23
57 °FPartly sunny.3 mph72%30.30 "HgN/A
11:20 AM57 °FPartly sunny.3 mph72%30.30 "HgN/A
10:50 AM54 °FPartly sunny.3 mph82%30.30 "HgN/A
10:20 AM54 °FPartly sunny.2 mph82%30.30 "HgN/A
9:50 AM54 °FPartly sunny.2 mph82%30.30 "HgN/A
9:20 AM52 °FPartly sunny.3 mph88%30.30 "HgN/A
8:50 AM52 °FBroken clouds.3 mph88%30.30 "Hg6 mi
8:20 AM50 °FBroken clouds.3 mph94%30.30 "Hg6 mi
7:50 AM50 °FPartly sunny.3 mph94%30.30 "Hg5 mi
7:20 AM50 °FPartly sunny.3 mph94%30.30 "Hg5 mi
6:50 AM50 °FPartly sunny.2 mph94%30.30 "Hg5 mi
6:20 AM48 °FPartly sunny.5 mph100%30.30 "Hg5 mi
5:50 AM48 °FLow clouds.3 mph100%30.30 "Hg5 mi
5:20 AM48 °FPassing clouds.No wind100%30.27 "Hg5 mi
4:50 AM48 °FPassing clouds.3 mph100%30.27 "Hg6 mi
4:20 AM48 °FPassing clouds.3 mph94%30.27 "Hg6 mi
3:50 AM48 °FPassing clouds.5 mph94%30.27 "Hg6 mi
3:20 AM46 °FPassing clouds.5 mph100%30.30 "Hg6 mi
2:50 AM46 °FPassing clouds.No wind100%30.30 "HgN/A
2:20 AM46 °FPassing clouds.5 mph93%30.30 "HgN/A
1:50 AM46 °FPassing clouds.6 mph93%30.30 "HgN/A
1:20 AM46 °FClear.5 mph93%30.27 "Hg10 mi
12:50 AM46 °FClear.3 mph87%30.30 "Hg10 mi
12:20 AM50 °FClear.3 mph82%30.27 "Hg10 mi
11:50 PM
Fri, May 22
50 °FPassing clouds.7 mph88%30.27 "HgN/A
11:20 PM50 °FClear.No wind94%30.27 "Hg10 mi
10:50 PM52 °FPassing clouds.7 mph94%30.27 "HgN/A
10:20 PM52 °FPassing clouds.6 mph94%30.27 "HgN/A
9:50 PM54 °FPassing clouds.6 mph94%30.27 "HgN/A
9:20 PM55 °FScattered clouds.8 mph88%30.27 "HgN/A
8:50 PM55 °FBroken clouds.7 mph94%30.27 "HgN/A
8:20 PM55 °FPartly sunny.7 mph94%30.24 "HgN/A
7:50 PM55 °FBroken clouds.10 mph94%30.24 "HgN/A
7:20 PM57 °FBroken clouds.10 mph88%30.24 "HgN/A
6:50 PM57 °FPartly sunny.10 mph88%30.24 "HgN/A
6:20 PM57 °FBroken clouds.9 mph94%30.24 "HgN/A
5:50 PM57 °FPartly sunny.9 mph94%30.24 "HgN/A
5:20 PM57 °FSleet. Partly sunny.12 mph88%30.24 "HgN/A
4:50 PM57 °FPartly sunny.12 mph88%30.24 "HgN/A
4:20 PM59 °FPartly sunny.10 mph82%30.24 "HgN/A
3:50 PM59 °FPartly sunny.13 mph82%30.24 "HgN/A
3:20 PM61 °FPartly sunny.9 mph77%30.24 "HgN/A
2:50 PM59 °FBroken clouds.10 mph82%30.24 "HgN/A
2:20 PM59 °FPartly sunny.10 mph82%30.24 "HgN/A
1:50 PM57 °FBroken clouds.10 mph94%30.24 "HgN/A
1:20 PM59 °FBroken clouds.9 mph88%30.24 "HgN/A
Weather by CustomWeather, © 2015

See weather overviewHow to use our weather pages